Miscellaneous Local Product
Issued by NWS Hastings, NE

Home | Current Version | Previous Version | Text Only | Print | Product List | Glossary On
Versions: 1 2 3 4 5 6 7 8 9 10 11 12 13 14 15 16 17 18 19 20 21 22 23 24 25 26 27 28 29 30 31 32 33 34 35 36 37 38 39 40 41 42 43 44 45 46 47 48 49 50
689
AXUS43 KGID 081502
MISGRI

GID CWA HOURLY WEATHER ROUNDUP
NATIONAL WEATHER SERVICE HASTINGS NE
900 AM CST MON FEB 08 2016

NOTE: "FAIR" INDICATES FEW OR NO CLOUDS BELOW 12,000 FEET WITH NO
SIGNIFICANT WEATHER AND/OR OBSTRUCTIONS TO VISIBILITY.

...SOUTH CENTRAL NEBRASKA...

CITY           SKY/WX    TMP DP  RH WIND       PRES   REMARKS
GRAND ISLAND   SUNNY     27  15  61 NW29G38   30.19R WCI  11
HASTINGS       SUNNY     27  16  63 NW25G36   30.19R WCI  12
ORD            SUNNY     27  16  63 NW29G37   30.19R WCI  11
YORK           CLOUDY    28  19  69 N24G36    30.14R WCI  14
AURORA         MOSUNNY   26  17  68 NW24G36   30.17R WCI  11
LEXINGTON      SUNNY     27  15  60 NW26G32   30.25S WCI  12
HOLDREGE       SUNNY     27  15  61 NW23      30.22R WCI  13
HEBRON         MOSUNNY   29  19  65 N23G31    30.18R WCI  16

...NEBRASKA PANHANDLE...

CITY           SKY/WX    TMP DP  RH WIND       PRES   REMARKS
CHADRON        CLOUDY    29  13  51 NW17G25   30.38R WCI  17
ALLIANCE       CLOUDY    25  10  53 W16       30.33R WCI  12
SCOTTSBLUFF    CLOUDY    27  14  58 NW15      30.38R WCI  15
SIDNEY         CLOUDY    23  12  62 NW15      30.34R WCI  10

...WESTERN AND NORTH CENTRAL NEBRASKA...

CITY           SKY/WX    TMP DP  RH WIND       PRES   REMARKS
VALENTINE      NOT AVBL
AINSWORTH      SUNNY     27  16  62 NW25G33   30.25R WCI  12
ONEILL         MOSUNNY   26  18  71 NW25G32   30.19R WCI  10
BROKEN BOW     SUNNY     27  15  61 NW28G36   30.22R WCI  11
IMPERIAL       CLOUDY    26   9  48 NW21      30.33R WCI  12
NORTH PLATTE   SUNNY     26  12  55 NW20G28   30.30R WCI  12
MCCOOK         SUNNY     26  13  57 NW23      30.32R WCI  11

...EASTERN NEBRASKA...

CITY           SKY/WX    TMP DP  RH WIND       PRES   REMARKS
NORFOLK        CLOUDY    27  17  66 NW25G43   30.10R WCI  12
SO SIOUX CITY  FLURRIES  25  16  68 N30G46    30.07R WCI   8
TEKAMAH        MIX PCPN  28  17  63 N37G53    30.07R WCI  11
COLUMBUS       CLOUDY    27  10  50 NW39G48   30.12S WCI   8
ALBION         CLOUDY    27  17  65 NW29G37   30.13R WCI  11
OMAHA EPPLEY   PTSUNNY   27  17  66 NW30G44   30.04R WCI  11
OFFUTT AFB     FLURRIES  28  18  64 NW23G31   30.06R WCI  14
MILLARD        CLOUDY    29  20  68 NW20G33   30.06R WCI  16
LINCOLN        CLOUDY    29  17  61 N29G45    30.12R WCI  14
NEBRASKA CITY  CLOUDY    29  20  69 N23G39    30.06R WCI  15
BEATRICE       CLOUDY    30  19  65 N30G39    30.13R WCI  14
FALLS CITY     CLOUDY    30  19  63 NW23G35   30.06R WCI  17

...NORTHERN KANSAS...

CITY           SKY/WX    TMP DP  RH WIND       PRES   REMARKS
GOODLAND       CLOUDY    24  12  60 NW16      30.34R WCI  11
HILL CITY      SUNNY     30  15  53 NW24G32   30.31R WCI  16
NORTON         SUNNY     28  14  54 NW22      30.29R WCI  15
PHILLIPSBURG   SUNNY     30  16  55 NW23G31   30.27R WCI  17
SMITH CENTER   SUNNY     28  18  64 NW22G31   30.25R WCI  15
BELOIT         SUNNY     32  18  55 NW17G28   30.23R WCI  21
HAYS           SUNNY     34  10  37 NW33G41   30.28R WCI  19
RUSSELL        SUNNY     32  16  51 NW33G45   30.26R WCI  17
CONCORDIA      MOSUNNY   30  17  58 NW24G31   30.20R WCI  16
SALINA         SUNNY     35  17  47 NW23G33   30.21R WCI  23
TOPEKA         CLOUDY    33  17  51 NW22G29   30.11R WCI  21



USA.gov is the U.S. government's official web portal to all federal, state and local government web resources and services.